Erneuerung der Klassenberechtigung SEP SP

Flugschule

Flugschule

Wir bieten eine professionelle und umfassende Ausbildung.

Flugwetter Augsburg

[Quelle: ADDS]
METAR
EDMA 280250Z AUTO 26011KT 9999 FEW014/// SCT016/// OVC019/// 02/01 Q1028 =
EDMA 271718Z 2718/2803 27010KT 9999 FEW012 BKN020 PROB30 TEMPO 2718/2719 4000 RASN PROB30 TEMPO 2719/2724 4000 -RADZ BKN012 PROB40 TEMPO 2800/2803 3000 -SHRASN BKN012TCU
TAF
EDMA 271718Z 2718/2803 27010KT 9999 FEW012 BKN020 PROB30 TEMPO 2718/2719 4000 RASN PROB30 TEMPO 2719/2724 4000 -RADZ BKN012 PROB40 TEMPO 2800/2803 3000 -SHRASN BKN012TCU =

Kontakt

Erneuerung der Klassenberechtigung SEP SP

Auffrischungsschulung

Bei abgelaufenen Klassen-, Muster- und Instrumentenflugberechtigungen wird gemäß AMC1 FCL.625(c) und AMC1 FCL-740(b)(1) Auffrischungstraining vor der Prüfung notwendig.

Diese Tabelle soll einen Überblick darüber geben, was die Mindestanforderungen laut EASA Teil FCL sind.

Ablauf

Erneuerung Klassen- und Muster- berechtigungen

Erneuerung Instrumentenflug- berechtigung

Kombination (beides abgelaufen)
< 3 Monate nicht vorgeschrieben nicht vorgeschrieben nicht vorgeschrieben
> 3 Monate & < 1 Jahr 2 Trainingseinheiten 1 Trainingseinheit 3 Trainingseinheiten
> 1 Jahr & < 3 Jahre 3 Trainingseinheiten 3 Trainingseinheiten 6 Trainingseinheiten
> 3 Jahre & < 7 Jahre Neuerwerb (SEP 5h) 3 Trainingseinheiten 8 Trainingseinheiten
> 7 Jahre Neuerwerb (SEP 5h) Neuerwerb Neuerwerb